Flag for Switzerland Weather past 2 weeks in Lausanne, Vaud, Switzerland

Now
57 °F

Cool.


Feels Like: 57 °F
Forecast: 43 / 65 °F
Wind: 5 mph from West

Location: Aigle

Current Time: Sep 22, 2014 at 11:05:56 PM

Latest Report: Sep 22, 2014 at 10:00 PM


Visibility: N/A

Pressure: 30.05 "Hg

Humidity: 61%

Dew point: 44 °F

Location of LausanneLocation

Historic Weather in Lausanne — Graph

°F

Lausanne temperature yesterday

Maximum temperature yesterday: 69 °F (at 12:00 PM)
Minimum temperature yesterday: 58 °F (at 11:00 PM)
Average temperature yesterday: 62 °F

Past Weeks' High & Low Weather Summary

 TemperatureHumidityPressure
High76 °F (Sep 8, 3:00 PM)100% (Sep 10, 7:00 AM)30.11 "Hg (Sep 10, 7:00 AM)
Low47 °F (Sep 12, 8:00 AM)51% (Sep 12, 5:00 PM)29.82 "Hg (Sep 17, 3:00 PM)
Average63 °F82%29.98 "Hg
* Reported Sep 7 9:00 PM — Sep 22 9:00 PM, Lausanne, Weather by CustomWeather, © 2014

Note: Actual official high and low records may vary slightly from our data, if they occured in-between our weather recording intervals... More about our weather records

Advertising

Lausanne weather history for previous 24 hours

 ConditionsComfort  
Time TempWeatherWind HumidityBarometerVisibility
9:00 PM
Sep 22
57 °FCool.5 mph62%30.06 "HgN/A
8:00 PM61 °FPassing clouds.6 mph54%30.04 "Hg16 mi
7:00 PM62 °FRefreshingly cool.10 mph56%30.04 "HgN/A
6:00 PM65 °FMild.6 mph55%30.01 "HgN/A
5:00 PM65 °FPassing clouds.9 mph55%30.03 "Hg19 mi
4:00 PM66 °FMild.13 mph52%30.03 "HgN/A
3:00 PM66 °FMild.13 mph54%30.02 "HgN/A
2:00 PM66 °FPassing clouds.14 mph58%30.03 "Hg22 mi
1:00 PM65 °FMild.13 mph63%30.05 "HgN/A
12:00 PM64 °FMild.9 mph68%30.06 "HgN/A
11:00 AM62 °FPassing clouds.6 mph74%30.08 "Hg22 mi
10:00 AM60 °FCool.2 mph82%30.09 "HgN/A
9:00 AM58 °FCool.2 mph94%30.09 "HgN/A
8:00 AM55 °FFog.1 mph98%30.09 "Hg9 mi
7:00 AM57 °FCool.1 mph97%30.08 "HgN/A
6:00 AM57 °FCool.1 mph98%30.08 "HgN/A
5:00 AM58 °FOvercast.1 mph98%30.07 "Hg3 mi
4:00 AM58 °FCool.No wind98%30.08 "HgN/A
3:00 AM58 °FCool.2 mph96%30.10 "HgN/A
2:00 AM58 °FCool.1 mph97%30.10 "HgN/A
1:00 AM57 °FCool.3 mph98%30.09 "HgN/A
12:00 AM57 °FCool.2 mph95%30.09 "HgN/A
11:00 PM
Sep 21
58 °FCool.1 mph96%30.10 "HgN/A
Weather by CustomWeather, © 2014

See weather overviewHow to use our weather pages